Showing default

COSMOS 2585, 63288

Orbit data source: Space-Track

COSMOS 2585, 63288 is a payload satellite owned by VVKO VKS (CIS) in LEO that was launched on Sun, 16 Mar 2025 UTC via an ANGARA-1.2 launch vehicle from the Plesetsk Missile And Space Complex (PKMTR). Payload-class satellites include a variety of spacecraft equipped with specific instruments for various scientific and technological missions. These include communications satellites like Starlink; space stations such as the ISS; scientific satellites like the Hubble; Earth observation satellites from companies like Planet Labs, Umbra, and HawkEye 360; GPS; miniature CubeSats for education and research; and military/defense satellites.

Loading next visibility...
Identifier
63288, 2025-054A
Orbit
LEO
Country
Flag of CISCIS
Related business
Manufacturer
Resehetnev ISS
Mission
Operational Defense Communications
Bus & Motor
STRELA-3M, Unknown motor
Mass
280 kg wet, 280 kg dry
Launch date (UTC)
2025-03-16 (6 months ago)
Launch vehicle
ANGARA-1.2
Launch site
Plesetsk Missile And Space Complex (PKMTR)
Object type
Payload
Rocket body
Debris
Shape & HBR
Cyl + 1 Ant, 3.5 m
Radar Cross Section
1.583 m², Large (>1 m²)

Expand to show TLE details & history
Last TLE update: 1 month ago

TLE from 1 month ago
0 COSMOS 2585
1 63288U 25054A   25232.24465506  .00000049  00000-0  28546-3 0  9990
2 63288  82.4895 265.9353 0023390 333.9003  26.0895 12.42907632 19473
Epoch: 2025-08-20T05:52Z
TLE epoch observation values (Epoch: 2025-08-20T05:52:18.197Z)
Latitude
-0.00009°
Longitude
-150.96579°
Altitude
1,480.469 km
Speed
7.131 km/s
True Right ascension
17h 43m 44s
True Declination
0° 00' 00"
Sunlit
Object was in daylight at epoch
Visualization orbit readout
Latitude
Unknown
Longitude
Unknown
Altitude
Unknown
Speed
Unknown
Apparent Right ascension
Unknown
Apparent Declination
Unknown
Sunlit
N/A
Visualization observer readout
Local Sidereal Time
06:12:06
Azimuth
Unknown
Elevation
Unknown
Doppler factor
Unknown
Orbital elements
Apogee altitude
1,510.06 km
Perigee altitude
1,473.246 km
Semi-major axis
7,869.79 km
Eccentricity
0.00234
Inclination
82.4895°
RAAN
265.9353°
Arg. of periapsis
333.9003°
True anomaly
26.20768°
Mean anomaly
26.0895°
Eccentric anomaly
26.14856°
Mean motion
3.10884 °/min
Orbital period
115.8 mins
BSTAR
0.00028546
Loading maneuver chart data...
Computing Atmospheric mass density...
Loading historical data...
Loading historical data...
Loading historical data...
Loading historical data...
Loading historical data...
Loading historical data...
Loading historical data...
Other satellites on launch #54 in the year 2025 (2025-03-16 UTC)

Documentation

Showing up to 5 results
|